When you browse on this site, cookies collect data to enhance your experience and personalize the content and advertising you see.
Visit our Privacy Policy to learn more. By continuing to use the site, you agree to this use of cookies and data.

Meteo pe oră la Dziechlino

Astăzi, 26 Septembrie, Sâmbătă

Timp Temperatura Precipitaţii Vânt Presiune Umiditate
00:00 +16°C° 0.3 mm 2 m/s 738 mmHg 93%
01:00 +16°C° 0 mm 1 m/s 738 mmHg 92%
02:00 +15°C° 0.1 mm 2 m/s 738 mmHg 93%
03:00 +15°C° 0.1 mm 2 m/s 738 mmHg 94%
04:00 +14°C° 0.1 mm 3 m/s 738 mmHg 94%
05:00 +14°C° 0.4 mm 3 m/s 737 mmHg 95%
06:00 +16°C° 0.4 mm 3 m/s 737 mmHg 95%
07:00 +15°C° 0 mm 4 m/s 737 mmHg 93%
08:00 +15°C° 0.5 mm 4 m/s 737 mmHg 91%
09:00 +17°C° 0.5 mm 4 m/s 737 mmHg 89%
10:00 +18°C° 0.5 mm 4 m/s 737 mmHg 87%
11:00 +17°C° 0.1 mm 5 m/s 737 mmHg 83%
12:00 +19°C° 0.1 mm 5 m/s 737 mmHg 78%
13:00 +20°C° 0.1 mm 5 m/s 737 mmHg 74%
14:00 +20°C° 0 mm 5 m/s 737 mmHg 73%
15:00 +21°C° 0 mm 5 m/s 737 mmHg 72%
16:00 +21°C° 0 mm 5 m/s 737 mmHg 70%
17:00 +21°C° 0 mm 5 m/s 737 mmHg 73%
18:00 +20°C° 0 mm 4 m/s 738 mmHg 76%
19:00 +19°C° 0 mm 4 m/s 738 mmHg 78%
20:00 +19°C° 0 mm 4 m/s 739 mmHg 81%
21:00 +18°C° 0 mm 4 m/s 739 mmHg 85%
22:00 +18°C° 0 mm 4 m/s 740 mmHg 88%
23:00 +18°C° 0 mm 4 m/s 740 mmHg 88%

Mâine, 27 Septembrie, Duminică

Timp Temperatura Precipitaţii Vânt Presiune Umiditate
00:00 +18°C° 0 mm 3 m/s 740 mmHg 88%
01:00 +18°C° 0 mm 3 m/s 741 mmHg 89%
02:00 +18°C° 0 mm 4 m/s 741 mmHg 86%
03:00 +18°C° 0 mm 4 m/s 741 mmHg 84%
04:00 +17°C° 0 mm 5 m/s 741 mmHg 81%
05:00 +17°C° 0 mm 5 m/s 741 mmHg 79%
06:00 +17°C° 0 mm 5 m/s 741 mmHg 77%
07:00 +16°C° 0 mm 6 m/s 741 mmHg 75%
08:00 +17°C° 0 mm 6 m/s 741 mmHg 71%
09:00 +18°C° 0 mm 7 m/s 741 mmHg 67%
10:00 +20°C° 0 mm 7 m/s 741 mmHg 63%
11:00 +20°C° 0 mm 7 m/s 741 mmHg 63%
12:00 +20°C° 0 mm 7 m/s 741 mmHg 63%
13:00 +20°C° 0 mm 7 m/s 741 mmHg 62%
14:00 +20°C° 0 mm 6 m/s 741 mmHg 62%
15:00 +21°C° 0 mm 6 m/s 741 mmHg 61%
16:00 +21°C° 0 mm 6 m/s 742 mmHg 60%
17:00 +20°C° 0 mm 5 m/s 742 mmHg 63%
18:00 +19°C° 0 mm 5 m/s 742 mmHg 65%
19:00 +17°C° 0 mm 5 m/s 742 mmHg 67%
20:00 +17°C° 0 mm 5 m/s 743 mmHg 72%
21:00 +16°C° 0 mm 5 m/s 743 mmHg 77%
22:00 +15°C° 0 mm 5 m/s 744 mmHg 82%
23:00 +14°C° 0 mm 5 m/s 744 mmHg 83%

Poimâine, 28 Septembrie, Luni

Timp Temperatura Precipitaţii Vânt Presiune Umiditate
00:00 +13°C° 0 mm 4 m/s 744 mmHg 84%
01:00 +12°C° 0 mm 4 m/s 744 mmHg 84%
02:00 +12°C° 0 mm 4 m/s 745 mmHg 84%
03:00 +12°C° 0 mm 4 m/s 745 mmHg 83%
04:00 +11°C° 0 mm 3 m/s 745 mmHg 83%
05:00 +11°C° 0 mm 4 m/s 745 mmHg 82%
06:00 +12°C° 0 mm 4 m/s 746 mmHg 81%
07:00 +12°C° 0 mm 4 m/s 746 mmHg 80%
08:00 +12°C° 0 mm 4 m/s 747 mmHg 77%
09:00 +13°C° 0 mm 4 m/s 747 mmHg 75%
10:00 +13°C° 0 mm 5 m/s 748 mmHg 73%
11:00 +14°C° 0 mm 4 m/s 748 mmHg 69%
12:00 +15°C° 0 mm 4 m/s 748 mmHg 66%
13:00 +15°C° 0 mm 4 m/s 749 mmHg 62%
14:00 +15°C° 0 mm 4 m/s 749 mmHg 61%
15:00 +16°C° 0 mm 3 m/s 749 mmHg 60%
16:00 +17°C° 0 mm 3 m/s 749 mmHg 59%
17:00 +15°C° 0 mm 2 m/s 749 mmHg 63%
18:00 +14°C° 0 mm 2 m/s 750 mmHg 68%
19:00 +13°C° 0 mm 2 m/s 750 mmHg 72%
20:00 +13°C° 0 mm 2 m/s 750 mmHg 71%
21:00 +13°C° 0 mm 2 m/s 750 mmHg 70%
22:00 +13°C° 0 mm 2 m/s 750 mmHg 69%
23:00 +13°C° 0 mm 2 m/s 750 mmHg 68%

29 Septembrie, Marţi

Timp Temperatura Precipitaţii Vânt Presiune Umiditate
00:00 +13°C° 0 mm 2 m/s 750 mmHg 67%
01:00 +14°C° 0 mm 2 m/s 750 mmHg 66%
02:00 +14°C° 0 mm 2 m/s 750 mmHg 67%
03:00 +14°C° 0 mm 2 m/s 750 mmHg 67%
04:00 +13°C° 0 mm 2 m/s 750 mmHg 68%
05:00 +14°C° 0 mm 2 m/s 750 mmHg 69%
06:00 +14°C° 0 mm 2 m/s 750 mmHg 71%
07:00 +14°C° 0 mm 2 m/s 750 mmHg 72%
08:00 +15°C° 0 mm 2 m/s 751 mmHg 68%
09:00 +16°C° 0 mm 2 m/s 751 mmHg 64%
10:00 +17°C° 0 mm 2 m/s 751 mmHg 60%
11:00 +18°C° 0 mm 2 m/s 751 mmHg 59%
12:00 +18°C° 0 mm 2 m/s 751 mmHg 57%
13:00 +19°C° 0 mm 2 m/s 751 mmHg 56%
14:00 +19°C° 0 mm 2 m/s 751 mmHg 58%
15:00 +18°C° 0 mm 2 m/s 751 mmHg 61%
16:00 +18°C° 0 mm 2 m/s 751 mmHg 63%
17:00 +17°C° 0 mm 2 m/s 751 mmHg 71%
18:00 +15°C° 0 mm 2 m/s 751 mmHg 78%
19:00 +14°C° 0 mm 2 m/s 751 mmHg 86%
20:00 +14°C° 0 mm 2 m/s 751 mmHg 88%
21:00 +13°C° 0 mm 2 m/s 751 mmHg 91%
22:00 +13°C° 0 mm 2 m/s 751 mmHg 93%
23:00 +13°C° 0 mm 2 m/s 751 mmHg 94%

30 Septembrie, Miercuri

Timp Temperatura Precipitaţii Vânt Presiune Umiditate
00:00 +13°C° 0 mm 1 m/s 751 mmHg 94%
01:00 +13°C° 0 mm 1 m/s 751 mmHg 94%
02:00 +13°C° 0 mm 1 m/s 751 mmHg 94%
03:00 +13°C° 0 mm 1 m/s 751 mmHg 94%
04:00 +13°C° 0 mm 1 m/s 751 mmHg 93%
05:00 +14°C° 0 mm 1 m/s 751 mmHg 92%
06:00 +14°C° 0 mm 1 m/s 751 mmHg 91%
07:00 +14°C° 0 mm 2 m/s 751 mmHg 90%
08:00 +15°C° 0 mm 2 m/s 751 mmHg 85%
09:00 +16°C° 0 mm 2 m/s 751 mmHg 80%
10:00 +17°C° 0 mm 3 m/s 751 mmHg 75%
11:00 +17°C° 0 mm 3 m/s 751 mmHg 72%
12:00 +18°C° 0 mm 3 m/s 751 mmHg 69%
13:00 +18°C° 0 mm 2 m/s 751 mmHg 66%
14:00 +18°C° 0 mm 3 m/s 750 mmHg 68%
15:00 +18°C° 0 mm 3 m/s 750 mmHg 69%
16:00 +18°C° 0 mm 3 m/s 750 mmHg 71%
17:00 +16°C° 0 mm 3 m/s 750 mmHg 78%
18:00 +14°C° 0 mm 3 m/s 750 mmHg 85%
19:00 +13°C° 0 mm 3 m/s 750 mmHg 92%
20:00 +14°C° 0 mm 2 m/s 749 mmHg 93%
21:00 +13°C° 0 mm 2 m/s 749 mmHg 94%
22:00 +13°C° 0 mm 2 m/s 749 mmHg 95%
23:00 +13°C° 0 mm 2 m/s 748 mmHg 95%

1 Octombrie, Joi

Timp Temperatura Precipitaţii Vânt Presiune Umiditate
00:00 +13°C° 0 mm 2 m/s 748 mmHg 96%
01:00 +13°C° 0 mm 2 m/s 747 mmHg 96%
02:00 +13°C° 0 mm 2 m/s 747 mmHg 96%
03:00 +13°C° 0 mm 2 m/s 747 mmHg 97%
04:00 +13°C° 0 mm 2 m/s 747 mmHg 97%
05:00 +13°C° 0 mm 2 m/s 746 mmHg 96%
06:00 +14°C° 0 mm 2 m/s 746 mmHg 96%
07:00 +13°C° 0 mm 3 m/s 746 mmHg 95%
08:00 +14°C° 0.3 mm 2 m/s 745 mmHg 94%
09:00 +14°C° 0.3 mm 2 m/s 745 mmHg 93%
10:00 +14°C° 0.3 mm 2 m/s 744 mmHg 92%
11:00 +13°C° 0.5 mm 2 m/s 744 mmHg 92%
12:00 +13°C° 0.5 mm 2 m/s 744 mmHg 92%
13:00 +13°C° 0.5 mm 2 m/s 743 mmHg 93%
14:00 +13°C° 0.6 mm 2 m/s 743 mmHg 93%
15:00 +12°C° 0.6 mm 2 m/s 742 mmHg 94%
16:00 +12°C° 0.6 mm 2 m/s 742 mmHg 94%
17:00 +12°C° 0.6 mm 2 m/s 742 mmHg 94%
18:00 +12°C° 0.6 mm 2 m/s 741 mmHg 95%
19:00 +12°C° 0.6 mm 2 m/s 741 mmHg 95%
20:00 +12°C° 0.5 mm 2 m/s 741 mmHg 95%
21:00 +12°C° 0.5 mm 2 m/s 741 mmHg 95%
22:00 +12°C° 0.5 mm 2 m/s 740 mmHg 95%
23:00 +12°C° 0.5 mm 2 m/s 740 mmHg 95%
Arată mai mult